GFSSE_prec_cthk_000.txt.gz
RH
83 83 87 87 85 86 81 69 68 64 61 55 47 44 44 44 42 40 38 38 35 37 43 46 50 49 55 62 65 70 57 57 48 35 36 41 43 43 37 31 48 51 34
85 84 83 84 84 79 75 70 67 62 55 50 46 43 43 42 40 39 39 37 37 41 42 46 51 54 54 59 64 72 74 69 63 43 37 50 53 47 51 36 52 38 39
82 79 77 83 81 79 75 71 63 57 52 48 45 42 42 40 37 38 38 39 39 42 43 45 50 56 54 59 69 71 68 74 70 51 37 49 54 53 51 61 40 66 63
76 74 73 74 76 72 66 63 58 53 52 49 44 42 41 41 42 43 40 43 45 45 46 46 48 53 57 58 68 71 70 72 74 62 49 46 48 33 39 46 47 62 44
70 69 62 65 67 65 64 55 55 54 51 46 45 43 43 44 46 48 49 50 50 49 49 50 49 50 55 59 61 69 71 75 71 72 53 43 53 30 33 33 46 44 42
63 65 60 61 62 62 59 55 53 50 47 46 45 44 44 43 46 48 50 52 52 53 53 53 53 51 52 57 60 62 68 68 75 79 65 45 48 43 25 39 39 41 49
56 60 62 61 59 59 55 51 48 46 45 45 45 44 44 48 53 56 60 57 56 57 57 57 56 57 53 57 60 59 62 69 70 80 79 69 44 42 34 38 38 37 42
57 61 58 57 57 55 53 50 47 47 47 47 47 50 52 53 57 59 59 63 63 62 62 67 62 61 52 52 61 59 63 67 78 83 80 80 51 34 29 30 39 45 41
57 57 58 55 49 48 49 49 50 51 51 51 53 53 55 57 61 62 66 62 62 67 73 72 70 68 64 58 66 64 62 61 69 76 76 81 69 38 38 27 28 36 40
56 55 55 55 52 50 47 50 52 52 52 53 54 57 58 60 61 58 64 63 59 66 74 73 63 61 68 67 65 65 66 69 77 73 77 76 74 63 34 35 28 29 42
53 54 55 54 54 54 52 49 48 50 50 52 54 53 56 67 66 64 56 57 59 59 67 64 62 62 60 63 61 55 55 61 66 73 73 73 72 73 55 41 35 30 33
53 51 52 55 57 55 55 53 52 52 52 52 51 54 58 61 60 57 55 54 55 52 53 50 47 49 57 59 53 49 50 43 49 59 74 61 70 74 81 54 43 38 34
50 51 54 51 50 51 55 54 51 51 51 49 50 51 56 55 57 58 56 53 50 48 54 49 46 45 41 39 39 39 37 35 39 46 63 70 63 71 73 81 63 45 41
50 51 48 48 47 50 52 52 50 50 52 53 52 47 54 55 56 55 57 54 49 52 50 47 48 43 41 38 39 38 35 29 27 26 49 55 70 62 68 78 89 68 50
46 47 48 46 43 43 44 49 50 51 50 51 50 49 51 54 64 57 60 56 50 48 48 45 43 42 42 41 39 35 31 27 19 22 25 38 55 70 67 70 74 81 70
44 44 45 42 42 46 45 48 47 48 50 50 51 46 43 50 67 61 57 52 47 47 44 41 39 39 40 38 34 28 24 19 18 20 21 25 33 54 66 72 73 79 80
39 40 38 40 40 44 43 46 44 47 46 47 47 44 44 54 58 54 58 51 52 48 39 38 39 38 35 31 29 28 28 27 25 21 21 24 28 33 49 63 70 73 84
36 34 35 40 42 36 41 40 43 47 46 45 46 53 55 54 50 50 53 53 52 47 44 43 40 32 31 34 29 29 29 28 27 25 25 21 24 25 39 47 57 65 68
35 34 34 36 36 34 41 43 40 43 48 54 46 49 47 46 47 47 48 49 49 50 54 50 42 28 26 27 31 33 33 32 30 33 29 30 30 28 26 35 40 52 66
34 32 33 32 32 36 42 49 50 49 46 43 39 42 42 51 47 48 47 42 40 45 44 38 26 26 26 26 25 31 32 34 34 36 33 29 28 32 34 28 30 40 50
32 33 32 31 32 40 48 43 40 43 42 41 37 45 41 40 39 39 40 37 35 37 26 23 22 26 25 32 26 34 37 34 37 35 36 32 28 28 29 33 39 34 39
32 32 33 31 33 37 39 38 39 43 39 40 37 41 37 37 32 31 34 34 29 26 26 20 21 27 29 28 32 32 39 44 42 38 34 31 31 32 33 32 33 32 39
30 31 28 28 30 35 37 42 37 39 35 37 35 34 30 28 30 29 27 25 24 20 24 24 26 26 30 33 34 31 35 40 40 42 41 32 30 31 30 30 32 32 32
28 29 27 28 28 33 35 34 32 33 34 35 37 37 32 28 30 28 25 26 20 23 23 23 21 24 24 34 32 30 27 30 40 42 43 37 35 34 31 33 33 31 27
32 30 24 25 26 29 31 29 31 31 37 35 34 35 33 34 30 28 28 24 20 19 25 22 22 23 29 29 32 37 37 34 32 37 39 43 41 39 35 33 30 32 29
40 36 25 23 23 26 28 29 31 33 34 37 38 37 36 38 34 33 32 27 23 26 26 24 20 23 23 27 33 41 40 38 39 38 37 38 40 39 39 33 33 32 32

GFSSE_prec_cthk_003.txt.gz
RH
92 93 90 85 81 79 74 70 66 61 57 52 46 45 43 42 41 37 37 35 38 43 48 49 50 53 59 61 61 60 52 48 41 38 40 45 44 39 28 39 69 50 36
87 86 86 84 81 75 70 67 65 61 53 48 46 44 40 39 40 38 37 38 39 42 46 48 51 51 55 63 70 69 68 62 46 35 48 54 50 51 39 67 65 32 48
86 84 82 80 77 70 66 66 65 58 51 46 43 40 39 39 37 36 37 37 38 41 43 48 51 50 51 62 69 65 69 66 52 40 43 65 49 51 53 45 59 62 52
79 79 76 77 76 74 68 64 60 53 47 43 41 40 39 39 39 37 38 39 39 43 45 46 50 51 51 59 67 67 70 69 66 46 53 64 47 40 53 45 60 49 66
75 76 74 73 71 67 61 57 55 51 45 43 44 43 43 43 45 45 45 46 44 46 48 48 48 49 52 57 65 65 68 69 72 60 54 59 52 32 40 44 54 48 61
70 72 67 68 66 57 55 53 52 48 45 45 45 44 43 42 44 44 47 47 48 49 53 54 52 50 53 58 60 63 66 64 78 73 62 41 49 34 35 40 54 49 45
62 62 59 60 58 55 51 49 46 44 45 44 44 43 42 46 50 53 54 53 56 58 62 63 58 56 50 57 58 59 66 68 83 81 79 75 37 40 29 41 39 38 47
60 59 55 54 54 51 49 46 44 43 44 46 47 47 46 48 53 55 56 59 63 67 71 68 64 59 52 55 61 59 61 64 83 84 82 79 52 32 28 31 44 39 41
56 57 55 53 50 47 45 45 45 46 47 46 47 48 49 51 56 57 60 54 60 71 75 73 65 66 64 60 64 63 62 64 69 72 74 80 69 43 33 26 32 38 45
53 55 56 50 49 48 46 48 49 48 47 47 48 49 51 56 57 55 62 58 57 60 69 68 62 60 63 66 65 61 62 66 72 72 81 74 73 65 47 33 29 36 38
53 49 54 53 52 50 51 48 48 46 46 47 46 49 53 67 66 60 57 52 56 56 57 53 48 50 57 64 63 56 56 59 55 72 73 68 74 77 64 49 39 30 40
54 58 51 55 51 48 54 47 49 48 49 49 52 51 53 61 59 55 54 49 48 49 46 45 41 41 47 51 49 46 49 43 46 45 60 69 65 73 84 72 50 44 33
52 53 52 54 52 49 54 51 51 52 54 53 51 52 54 60 64 62 56 59 51 48 62 51 52 57 46 45 47 47 43 40 39 40 43 64 70 70 75 86 76 52 45
52 51 48 51 46 48 50 52 52 54 54 54 50 50 51 51 55 55 64 62 56 68 52 57 52 47 47 45 45 44 43 40 36 27 36 47 61 70 71 75 86 77 56
51 50 46 47 43 45 48 48 51 51 49 54 53 50 51 63 63 65 55 51 52 51 58 50 50 47 45 47 46 38 35 30 27 23 25 27 42 57 70 73 73 83 76
44 43 44 47 44 41 48 47 49 51 51 47 51 50 45 53 66 59 61 55 54 49 53 47 46 41 43 41 37 37 29 30 26 25 27 30 26 39 59 69 70 73 85
41 43 44 42 42 40 44 43 42 49 46 48 48 46 43 52 50 49 59 56 55 48 45 44 50 43 36 32 34 34 35 35 31 28 27 34 32 28 39 56 66 71 73
38 35 35 40 39 40 45 44 43 46 50 47 47 52 51 48 49 48 50 56 53 49 56 51 47 49 38 31 33 34 34 34 30 31 32 26 33 33 33 40 53 60 64
33 32 33 36 42 37 37 40 38 41 50 58 58 57 58 46 50 49 49 51 52 51 50 45 44 41 30 29 33 32 35 36 35 40 31 34 32 34 35 32 35 43 52
35 32 34 35 35 34 36 51 48 49 50 48 48 51 46 53 49 49 52 52 46 49 43 53 43 24 21 32 29 30 35 37 36 35 34 33 28 38 44 39 38 35 35
33 31 34 34 33 31 37 46 46 47 47 43 42 48 45 42 41 44 46 45 47 45 44 32 25 25 33 36 29 42 40 40 39 37 35 33 31 28 31 32 39 44 53
29 29 30 30 30 27 36 37 41 43 43 45 45 42 44 44 43 39 38 41 39 44 32 26 21 21 34 36 35 34 43 50 50 48 36 32 30 33 35 34 31 31 39
30 27 29 28 29 30 34 44 45 47 40 48 46 46 37 32 33 32 36 34 39 27 26 27 24 22 29 37 32 33 41 52 44 48 45 34 31 29 30 32 32 31 30
30 28 29 28 28 30 33 38 41 47 41 40 41 40 38 39 33 36 37 38 33 26 28 24 26 21 22 34 35 35 23 30 36 48 51 46 40 37 32 33 35 34 29
33 32 28 29 29 29 29 38 39 40 42 43 42 40 39 41 38 39 39 39 33 26 32 25 25 21 32 29 33 35 37 35 27 31 39 47 45 45 38 30 31 30 31
42 41 34 30 27 27 29 32 34 41 36 42 39 45 44 41 43 42 44 45 39 34 35 36 31 29 28 30 31 32 38 38 44 44 41 41 43 45 44 40 34 34 31

GFSSE_prec_cthk_006.txt.gz
RH
89 86 82 81 84 83 74 66 63 58 54 47 45 45 44 41 37 33 33 36 42 45 47 45 49 52 58 58 60 58 49 42 36 46 50 43 41 31 33 62 59 42 39
85 81 81 77 77 72 67 61 55 50 47 45 43 41 38 37 34 34 36 39 42 43 46 45 47 49 57 66 66 65 60 49 36 51 62 49 49 40 63 67 39 35 33
85 81 75 71 70 65 61 57 51 45 44 43 40 38 37 34 33 35 36 37 40 42 44 47 46 46 53 62 62 64 63 57 42 44 66 51 49 48 46 58 50 44 55
78 74 70 65 60 58 59 57 51 44 43 40 38 37 36 36 35 38 40 41 43 44 44 46 47 46 51 59 61 64 67 63 52 47 64 58 37 47 46 53 50 64 58
71 69 68 67 64 59 58 54 49 44 42 40 40 40 39 41 43 44 46 45 44 45 46 45 46 48 51 57 59 60 61 67 63 48 44 60 33 36 39 51 41 57 51
74 70 69 67 63 56 55 53 49 44 42 42 42 40 39 41 44 46 47 49 50 54 56 53 51 48 52 54 57 62 60 67 77 85 66 41 38 26 34 44 47 44 38
71 66 66 61 56 54 52 49 48 45 43 43 41 40 42 47 50 52 52 56 58 62 63 59 55 50 51 58 58 59 63 72 82 79 86 66 36 35 30 36 38 40 37
60 60 59 58 54 52 48 45 45 44 45 45 46 45 44 47 52 54 55 57 65 70 70 64 61 60 54 58 61 57 58 63 77 83 82 82 51 32 27 34 35 38 37
57 54 53 52 50 47 45 45 44 45 46 45 45 45 46 50 55 54 52 53 58 68 70 64 58 63 62 60 57 59 62 64 72 85 84 83 70 47 30 29 36 33 37
56 52 52 49 46 44 44 44 44 43 42 43 44 46 49 53 56 55 55 53 54 56 60 57 55 57 64 67 64 65 64 61 61 92 80 73 77 68 51 31 33 39 35
53 49 50 49 46 48 44 44 42 41 41 41 42 44 50 58 57 58 57 53 53 48 44 42 39 44 49 56 56 50 50 48 57 56 53 66 64 77 67 53 34 38 44
50 51 56 55 46 45 48 44 41 39 39 40 40 41 48 76 58 57 59 54 51 48 51 44 40 45 44 43 45 46 45 39 42 45 42 59 70 71 77 76 54 43 40
53 52 51 47 45 50 49 42 40 42 44 42 44 44 46 56 69 71 73 66 72 62 81 45 44 57 45 44 42 43 37 40 41 41 36 41 63 70 75 79 90 66 48
50 46 51 45 43 48 43 42 42 47 45 48 45 42 45 53 53 87 84 68 64 61 54 55 42 46 45 41 45 57 35 35 33 30 28 31 48 61 72 76 88 78 63
45 49 42 42 41 45 45 44 48 51 49 53 47 42 47 52 55 72 55 58 52 54 46 45 44 43 39 38 37 36 31 27 26 22 25 24 30 41 57 72 78 80 75
44 44 40 38 38 43 41 41 46 42 53 43 51 43 41 49 52 68 55 50 47 46 42 44 40 45 41 40 38 34 30 37 28 28 25 29 27 33 41 62 69 72 80
43 42 41 41 36 34 36 37 35 45 40 41 40 45 42 45 40 45 50 47 49 45 47 49 51 45 53 39 34 32 36 34 31 23 22 32 29 26 33 42 62 67 71
38 37 37 38 34 32 37 40 35 34 44 41 38 50 55 42 39 43 43 54 68 51 49 58 47 43 45 33 29 35 31 35 32 35 38 24 28 27 29 31 43 56 59
34 33 31 32 36 31 33 35 36 35 45 54 52 47 73 75 51 44 45 48 58 45 42 48 51 51 32 21 27 35 35 31 32 36 28 38 31 32 36 32 31 35 45
32 29 28 28 33 32 31 37 44 39 48 47 51 59 51 48 44 55 49 48 42 41 49 46 49 30 19 26 29 27 33 39 38 29 33 33 30 38 43 46 36 37 41
32 30 28 28 30 32 32 35 41 46 44 42 36 39 45 47 41 46 42 49 45 36 43 40 26 15 26 29 32 36 39 46 44 40 32 29 31 30 27 32 38 38 44
29 26 26 27 29 30 30 34 35 34 35 37 41 42 35 45 35 41 34 38 43 47 37 27 22 16 29 31 28 32 46 50 51 46 41 32 28 29 31 31 28 29 33
27 24 24 25 27 27 28 31 37 52 49 52 42 45 36 39 31 41 37 35 35 39 28 24 23 18 27 32 35 34 43 46 52 51 48 39 34 27 24 26 27 27 29
28 23 24 25 26 26 28 34 31 34 42 43 38 42 31 30 30 29 27 33 37 28 26 25 21 19 22 35 36 33 24 38 45 48 48 47 42 32 31 27 29 29 28
30 26 23 24 26 25 25 30 39 43 38 34 31 33 36 34 31 36 34 35 31 28 31 33 31 23 26 30 32 37 35 27 25 35 43 45 45 43 32 32 28 25 25
38 40 32 28 26 27 26 30 35 44 38 40 43 37 34 33 35 33 37 40 41 37 40 41 41 37 35 30 31 32 37 36 40 39 36 39 40 42 44 44 37 32 31

GFSSE_prec_cthk_009.txt.gz
RH
88 89 87 87 85 80 76 69 61 54 48 45 45 42 37 34 30 32 34 37 39 42 43 45 49 57 61 62 61 51 43 35 43 49 40 44 34 37 53 47 40 38 36
85 87 84 80 75 69 66 58 54 48 44 42 40 34 34 31 34 34 34 35 38 43 44 43 46 54 62 63 62 59 50 38 46 60 45 47 41 61 63 43 39 37 38
82 78 74 71 65 58 56 51 47 43 40 38 36 35 32 32 34 33 34 36 39 42 45 43 43 48 55 58 61 61 57 48 45 58 42 47 45 50 53 40 39 44 36
70 67 66 63 58 55 50 45 40 39 37 35 35 34 33 34 36 38 39 40 42 42 45 44 44 47 53 57 59 64 63 56 41 63 49 39 45 44 51 50 59 56 49
64 63 60 56 55 54 47 41 38 37 36 37 37 37 38 39 42 44 44 43 46 48 46 46 47 48 48 55 60 59 63 68 71 50 53 43 33 38 50 43 56 48 51
62 60 59 55 53 51 47 42 38 38 38 38 38 38 40 44 47 49 52 53 57 57 55 52 46 48 54 56 61 63 64 81 87 83 45 45 32 32 42 44 52 41 44
63 63 62 56 52 50 47 43 39 38 38 40 41 43 45 48 51 53 57 61 64 67 60 58 53 50 56 59 59 60 65 85 96 97 90 47 34 31 38 41 44 37 38
61 60 56 55 51 49 45 43 40 41 43 46 47 47 46 50 54 56 57 64 71 75 70 61 62 58 54 55 61 60 61 72 87 90 95 82 42 30 33 35 39 44 39
56 56 53 49 49 46 43 42 44 45 46 48 47 46 48 55 56 53 55 58 63 67 65 59 58 65 64 64 66 66 63 61 65 68 80 86 70 46 29 39 36 39 39
52 52 49 46 43 42 43 43 44 43 45 47 47 48 52 56 58 62 54 54 54 53 52 48 52 58 62 63 64 60 56 56 54 52 74 74 80 75 52 33 41 48 38
48 47 46 43 41 41 41 40 40 40 42 42 43 48 54 53 53 61 59 53 48 43 42 39 38 42 41 43 49 48 45 43 40 49 53 66 71 85 77 52 36 47 48
45 46 46 42 41 40 39 38 38 38 38 38 38 43 55 55 59 64 60 60 59 48 50 47 47 58 49 41 38 38 39 38 38 38 41 49 71 74 73 77 56 42 48
47 45 45 40 42 41 39 39 39 38 39 39 39 46 42 66 68 64 62 60 73 64 58 59 59 41 43 41 41 44 42 37 33 35 33 38 51 67 74 78 77 65 43
41 43 47 41 41 42 42 41 39 40 42 43 44 42 45 60 63 66 60 64 58 53 47 59 45 41 39 38 36 32 28 28 36 33 29 28 34 53 63 73 75 72 65
41 46 45 42 40 42 39 39 39 41 41 45 49 50 44 46 63 60 58 56 50 49 48 46 45 44 40 38 35 35 30 31 27 25 25 31 31 39 44 65 71 76 68
41 38 40 42 37 36 39 39 43 45 50 45 55 51 51 46 42 66 60 53 50 44 54 44 47 46 41 38 34 34 32 36 29 26 25 28 34 35 42 52 65 68 74
39 37 38 35 34 35 36 35 35 42 40 44 40 47 50 50 47 45 49 52 65 51 46 45 47 41 38 36 24 27 32 30 31 26 29 29 31 30 39 42 55 62 61
36 35 34 34 31 30 33 33 34 34 33 36 39 37 41 43 42 43 51 51 58 56 44 42 40 42 39 31 18 32 30 30 34 37 36 28 28 28 32 36 40 51 54
33 32 29 29 27 26 28 30 31 32 39 41 46 42 56 63 58 51 47 50 48 46 43 45 41 42 35 17 24 33 27 31 31 34 28 33 35 32 32 34 36 36 45
31 31 27 25 24 29 29 30 35 38 40 38 40 41 53 52 46 44 48 47 48 46 40 37 34 27 16 22 27 29 29 34 36 32 32 32 31 37 39 40 34 34 32
30 28 26 26 23 28 27 27 34 35 38 41 37 37 35 42 45 38 40 40 42 42 35 34 29 17 22 25 32 32 36 41 41 39 36 32 29 30 30 27 30 33 44
26 25 26 25 26 27 28 28 32 29 32 33 34 31 35 34 37 34 33 33 34 36 33 29 22 17 24 27 28 27 40 47 46 42 41 36 33 29 28 28 27 26 28
24 22 23 23 24 25 27 28 32 34 39 39 35 32 46 37 36 32 35 30 30 32 34 32 24 21 25 30 30 32 40 43 46 45 41 38 36 32 26 22 24 26 25
22 20 21 22 23 24 26 26 29 29 31 36 41 31 40 31 29 27 26 28 32 34 38 34 36 32 34 38 34 33 30 39 44 44 43 41 34 34 34 30 26 26 25
28 23 20 20 22 22 25 25 27 31 31 35 36 31 29 30 33 31 27 37 42 46 45 44 47 44 47 47 44 36 32 28 34 38 39 38 40 38 35 34 35 30 28
36 35 30 24 24 23 23 23 23 27 31 33 33 31 32 33 34 32 39 44 46 48 47 48 51 50 52 53 51 50 39 33 32 34 35 35 36 38 41 36 36 35 33

GFSSE_prec_cthk_012.txt.gz
RH
92 92 90 89 85 82 77 67 57 48 44 43 42 38 33 30 31 35 39 42 42 41 40 45 57 61 62 63 53 48 44 51 50 46 46 37 35 43 43 39 34 44 38
88 90 90 87 81 72 67 58 49 43 41 41 36 33 32 33 33 34 37 41 42 41 40 44 54 60 62 61 64 59 51 54 60 46 47 48 66 61 51 39 38 39 39
84 83 82 76 69 62 56 48 42 40 38 36 35 32 33 33 34 35 38 40 42 44 42 43 48 55 58 63 63 61 53 49 59 43 47 48 61 53 40 44 40 38 55
74 72 70 66 59 53 46 42 39 37 36 36 33 32 34 38 40 40 41 41 42 45 47 46 48 50 55 61 64 63 60 47 60 55 36 47 49 57 53 55 54 47 48
66 66 62 57 53 48 42 39 38 36 37 36 36 38 40 42 43 46 46 50 50 48 48 48 49 50 57 60 61 63 73 81 66 57 36 40 44 53 52 65 56 54 53
61 58 54 51 49 41 39 39 38 39 38 37 37 40 42 46 47 51 55 58 60 57 52 48 51 57 59 60 62 71 85 86 89 53 47 40 38 44 44 57 55 52 49
58 57 52 50 47 42 39 38 39 39 39 40 42 43 46 48 52 57 61 67 70 64 60 57 54 56 57 60 65 67 80 91 78 86 57 40 32 42 45 49 39 40 40
55 55 50 49 49 46 41 39 40 41 42 44 45 45 48 52 54 58 60 68 70 66 61 62 62 57 58 60 66 67 65 70 73 77 82 59 35 31 36 41 42 39 44
58 54 51 49 50 46 44 42 42 42 45 46 46 46 51 53 55 56 56 55 58 57 55 59 60 62 65 67 69 68 65 62 59 65 85 79 56 38 32 36 34 35 39
54 52 49 49 47 45 45 44 42 44 46 46 47 46 50 54 57 53 47 47 47 46 46 45 45 44 47 51 53 56 52 49 48 58 76 71 81 67 45 35 34 37 32
51 49 46 46 44 44 44 44 42 41 42 43 44 45 53 58 56 55 51 44 42 41 40 41 42 46 39 44 42 45 37 34 37 42 49 65 72 80 69 45 38 40 37
45 46 45 43 42 41 41 39 36 35 34 36 40 49 59 58 57 59 54 54 53 48 52 52 50 44 38 38 37 40 39 37 35 34 36 42 64 74 70 70 52 49 45
39 44 40 40 40 39 37 35 33 34 32 33 37 51 61 64 61 64 58 61 59 52 49 51 45 40 36 33 37 37 35 36 32 30 29 38 42 62 70 76 70 61 52
37 39 39 40 39 37 37 36 34 35 34 34 36 45 54 57 57 60 54 52 46 45 45 44 44 42 37 37 32 31 27 27 31 33 28 31 35 45 58 69 74 69 59
37 40 38 36 38 37 38 39 34 37 41 45 43 46 45 53 54 57 51 46 42 41 38 42 44 44 40 35 34 31 30 36 26 26 24 31 34 36 45 62 67 70 64
36 37 38 36 34 37 38 38 37 40 39 39 45 47 46 43 49 52 53 49 47 47 45 48 44 45 42 42 37 28 34 33 30 25 24 27 35 32 37 56 65 65 59
34 33 36 35 36 37 36 37 39 37 42 39 42 40 53 38 42 44 47 48 53 63 53 43 44 44 44 41 34 30 34 30 35 27 24 28 31 32 36 44 58 60 61
33 35 35 36 37 34 32 33 37 38 34 37 34 36 40 38 43 46 44 47 48 46 49 46 45 41 42 38 26 34 32 33 35 37 33 28 29 31 35 38 42 55 60
32 36 36 35 34 31 31 33 34 38 42 40 40 39 42 54 57 56 48 49 50 49 47 43 40 35 34 26 22 33 32 35 32 30 29 36 31 29 32 35 36 39 46
30 33 33 33 31 30 31 34 34 37 45 40 36 38 42 54 50 46 43 44 43 43 40 36 39 32 21 22 27 28 34 38 38 34 33 29 33 36 39 40 35 33 34
31 31 30 29 28 29 28 31 34 38 37 38 38 35 37 43 51 48 45 38 39 36 33 31 33 25 22 28 28 28 33 40 41 39 35 34 32 30 31 31 32 35 41
27 29 29 27 27 27 26 28 29 29 29 29 32 33 35 39 38 39 36 32 32 32 31 33 37 27 30 30 28 30 34 46 46 40 41 37 32 28 23 27 28 28 29
24 24 24 24 25 25 26 28 31 33 29 32 34 34 32 35 38 35 33 32 28 32 38 41 41 36 41 42 41 35 36 38 39 38 37 40 35 32 30 27 25 24 25
20 21 23 23 23 23 23 24 25 28 33 33 33 38 34 46 37 32 30 29 36 40 48 50 48 47 49 53 52 45 40 37 39 39 39 38 35 34 33 33 33 29 27
24 24 23 23 22 22 22 22 22 25 24 25 33 36 35 38 32 31 33 38 42 47 45 44 44 44 47 58 57 50 48 43 42 42 40 38 36 33 32 33 33 37 33
34 32 30 26 25 24 23 22 20 20 23 28 31 36 36 31 31 31 38 38 45 50 46 43 43 45 42 55 55 54 53 50 51 52 47 45 41 38 38 37 37 39 36

GFSSE_prec_cthk_015.txt.gz
RH
94 92 92 89 90 88 88 70 53 45 47 44 38 34 32 34 39 42 43 43 43 43 49 59 63 68 67 60 56 48 55 51 46 47 41 32 35 38 34 35 42 39 41
89 92 91 88 84 81 63 53 46 47 44 38 34 33 34 36 37 39 42 43 42 43 46 55 61 64 65 65 63 56 56 65 53 47 53 69 64 52 43 33 37 38 39
89 89 86 80 76 65 56 48 44 42 39 36 32 34 34 35 37 40 42 45 46 43 45 49 54 58 61 64 66 62 58 67 56 45 47 67 54 42 42 36 37 48 40
82 81 77 72 65 53 48 44 41 38 36 32 31 34 37 40 41 43 43 45 46 47 45 45 47 54 60 65 68 72 66 58 63 33 45 52 59 50 45 44 39 56 51
72 71 67 61 53 46 41 39 38 36 34 32 36 40 42 44 46 47 49 50 48 44 45 48 49 55 63 71 70 71 80 72 49 35 35 47 51 56 61 54 48 49 47
63 61 57 52 45 41 39 38 37 36 36 36 38 41 45 46 51 55 59 60 54 50 48 50 52 56 66 69 69 79 82 75 66 35 30 36 42 44 56 48 52 50 49
56 53 51 47 41 39 38 39 38 38 38 40 41 44 48 52 55 61 68 70 65 64 58 55 52 55 61 65 66 64 61 60 64 62 39 28 38 41 47 45 40 39 36
54 51 48 45 39 38 38 38 40 40 41 43 43 46 51 53 55 57 62 65 61 56 57 58 61 65 67 68 68 65 54 55 65 72 61 36 32 38 41 40 37 38 36
53 48 47 45 40 37 38 40 41 42 44 45 46 49 52 54 55 52 51 50 49 49 49 50 55 59 63 62 59 54 47 41 51 75 72 63 46 36 37 35 36 39 40
52 49 47 46 42 40 39 39 41 42 44 45 46 47 50 53 52 47 47 44 41 39 39 39 40 45 47 53 51 41 37 36 37 66 74 73 71 54 46 39 37 34 38
53 50 47 44 43 43 41 39 41 42 43 43 43 47 51 53 52 52 50 46 46 41 42 43 47 49 46 45 41 39 37 33 34 40 53 68 85 74 58 47 44 40 37
50 46 46 44 43 43 41 39 38 38 41 41 44 50 53 58 61 63 56 55 51 49 49 52 53 46 39 39 38 38 36 37 34 32 34 46 75 80 77 61 56 53 46
47 46 43 42 41 39 36 35 34 33 35 39 46 52 59 65 61 61 54 58 56 52 47 51 43 43 40 34 33 37 32 31 36 34 32 41 53 69 78 72 63 59 53
44 42 41 39 37 36 34 32 31 30 31 34 43 52 52 60 58 56 55 52 49 47 45 42 40 46 42 37 37 32 27 31 30 31 28 34 36 54 64 80 70 68 55
39 40 38 36 34 34 33 32 32 32 32 34 39 46 51 52 54 55 51 48 45 45 44 46 46 47 40 40 39 35 29 36 31 27 23 32 35 45 54 69 71 73 59
34 36 35 33 35 33 33 33 32 32 36 40 41 42 45 50 53 51 54 56 54 60 51 47 44 44 44 43 41 32 30 34 31 27 24 33 35 36 46 66 63 63 61
35 35 32 29 30 32 33 34 33 33 36 39 43 48 45 47 47 54 52 51 53 54 48 48 47 43 43 43 39 32 32 28 36 29 25 28 35 36 41 52 65 63 61
32 33 32 31 31 31 31 33 30 32 35 36 38 41 43 42 45 49 51 49 49 47 47 48 45 40 38 42 32 30 32 35 33 36 32 29 27 33 42 46 52 63 59
30 32 33 33 33 32 32 30 31 32 32 35 38 43 41 49 53 59 53 49 46 43 40 38 36 36 32 29 24 28 34 34 32 30 34 34 28 27 33 41 44 46 54
31 33 35 34 32 32 30 29 31 37 40 39 39 40 45 52 57 55 45 42 42 37 34 33 31 32 30 23 27 31 34 38 38 33 29 31 29 36 36 31 32 36 37
33 34 32 31 31 31 33 32 34 37 42 40 38 35 37 41 48 50 48 43 36 32 32 33 35 38 28 32 33 32 35 39 39 38 36 34 32 31 31 28 32 34 40
24 26 28 26 30 30 29 31 31 34 33 35 35 36 36 38 42 40 39 37 30 32 38 40 45 48 40 46 42 39 37 38 39 36 37 35 32 28 24 26 27 26 30
22 21 21 22 26 29 29 29 30 33 30 30 32 35 36 37 38 37 35 33 32 38 48 54 55 51 44 53 51 46 44 41 40 36 35 37 34 32 31 28 25 24 25
14 17 20 23 25 28 30 30 27 28 29 30 31 34 39 37 36 38 33 35 42 49 48 50 50 47 46 53 56 53 50 46 46 41 37 37 37 34 34 34 33 31 29
15 16 18 20 21 25 27 27 27 27 29 33 31 33 38 34 37 39 33 41 46 47 48 51 50 45 41 49 53 51 52 56 56 51 46 45 41 38 34 34 34 37 35
33 29 24 24 24 25 24 24 24 24 25 27 30 33 34 33 35 32 38 44 48 50 49 49 47 45 43 45 48 48 47 47 48 54 57 59 57 53 50 48 46 44 43

GFSSE_prec_cthk_021.txt.gz
RH
99 99 96 92 88 80 71 60 55 47 40 33 35 38 41 41 41 41 40 41 51 55 59 60 59 53 47 48 48 48 43 41 43 44 36 33 31 30 31 36 42 49 49
95 96 97 89 81 65 53 50 48 40 34 35 35 38 39 41 42 41 40 40 46 55 58 59 59 60 57 51 51 54 51 41 46 60 57 52 44 31 38 35 40 51 47
93 94 92 88 71 49 44 44 39 35 35 33 34 36 39 42 43 43 42 43 48 49 50 56 60 60 63 65 63 60 62 43 46 61 47 50 52 34 31 33 35 43 48
89 84 85 81 53 40 41 38 34 34 34 36 39 40 42 42 44 45 45 44 45 48 56 55 59 62 65 69 76 72 74 55 38 53 61 50 47 35 34 42 37 47 45
82 78 80 64 41 37 38 35 33 34 37 41 43 45 46 51 53 49 46 44 50 54 52 56 61 64 69 73 80 86 69 60 45 41 57 55 57 45 39 49 47 46 45
74 72 66 45 38 37 37 34 34 36 39 42 47 52 57 63 66 63 62 53 55 52 50 53 59 64 68 71 74 72 70 64 53 43 49 58 71 55 49 48 44 50 55
67 62 50 42 38 38 37 36 37 38 40 48 51 57 62 68 69 65 65 61 60 57 55 58 60 64 70 71 63 61 62 66 65 36 40 48 59 53 51 55 50 47 44
59 54 44 39 39 39 37 38 39 40 44 49 53 59 58 58 57 57 54 55 55 55 59 63 63 63 60 54 50 44 47 68 72 59 32 42 47 50 44 47 44 40 42
54 49 44 38 38 38 38 40 40 41 46 49 53 55 54 52 48 45 43 42 42 44 45 46 47 43 46 46 42 40 42 57 72 71 43 35 47 49 45 39 39 35 35
51 46 42 38 36 38 39 40 41 43 47 49 51 48 51 49 46 44 39 40 45 46 48 48 46 43 41 39 41 43 40 48 71 76 77 53 45 45 41 37 51 40 37
47 43 42 39 36 38 40 41 42 43 44 45 44 52 59 58 54 49 45 48 53 51 51 49 47 43 38 32 30 32 35 38 52 67 72 82 71 55 51 57 44 42 40
43 41 41 38 36 36 37 38 39 41 44 45 44 52 60 64 58 52 48 46 49 47 49 48 46 43 39 33 29 28 31 29 33 44 57 67 81 79 59 48 61 53 40
39 38 37 36 36 34 35 37 38 43 44 47 50 55 61 65 60 52 51 48 43 43 43 44 44 45 41 33 35 33 31 30 32 34 39 53 70 82 86 66 57 70 54
38 36 37 38 36 33 34 35 39 42 46 49 50 51 56 56 52 49 46 46 45 47 48 44 43 46 43 37 37 33 32 30 32 29 32 38 57 70 81 79 65 62 52
39 37 36 36 35 33 33 35 39 42 44 45 44 47 51 52 51 53 50 53 56 58 55 46 47 48 42 40 38 35 32 29 30 29 28 40 44 61 70 79 75 65 66
41 37 38 36 34 33 32 33 35 38 40 40 41 44 49 49 49 52 57 56 59 54 52 51 46 41 38 36 36 35 29 31 32 25 28 37 39 47 57 71 75 73 61
37 37 36 35 34 33 33 33 34 33 33 33 36 46 50 50 51 54 52 52 51 52 51 52 44 43 38 33 38 32 30 34 31 27 29 37 43 43 49 61 67 65 69
33 34 34 35 32 31 31 32 32 32 33 34 33 40 45 50 49 48 49 52 50 47 50 48 46 45 39 39 32 36 29 31 29 28 26 30 34 45 45 47 60 65 61
30 31 31 33 32 31 31 31 30 30 31 35 36 38 42 46 49 52 56 54 48 44 43 44 43 38 37 37 34 30 31 32 30 29 34 29 29 32 41 44 47 54 58
30 30 28 29 29 29 29 28 27 28 28 29 36 40 48 48 57 63 57 48 49 41 39 43 47 46 45 35 33 33 35 36 32 28 30 33 31 31 32 37 42 46 45
30 29 26 25 26 25 24 23 24 26 29 31 35 41 48 47 49 55 49 49 47 39 46 53 53 49 49 40 42 40 37 38 35 34 33 31 26 25 29 29 40 34 42
27 27 25 26 23 22 21 23 27 32 35 35 37 37 40 40 41 47 47 45 41 44 50 51 52 53 52 44 45 43 43 40 35 33 32 30 28 26 23 23 25 26 29
25 24 23 23 22 23 26 29 30 31 34 33 32 33 35 37 38 39 41 41 38 48 50 49 52 52 53 43 47 47 47 46 45 40 36 33 32 29 28 28 24 22 23
20 21 21 22 22 21 22 24 25 27 29 28 29 31 32 35 36 38 40 38 41 48 49 50 49 50 49 46 47 49 50 52 55 54 51 45 40 38 34 31 31 28 28
20 19 19 19 21 20 21 21 22 23 27 30 29 30 32 35 38 37 38 37 44 47 50 50 48 48 47 45 44 47 46 47 49 51 51 51 53 54 48 43 41 41 41
25 20 19 19 20 20 21 22 22 23 25 30 29 30 31 32 33 34 35 38 44 46 50 49 48 47 47 45 43 47 49 50 50 49 50 50 50 49 50 50 49 47 47

GFSSE_prec_cthk_024.txt.gz
RH
96 91 87 85 76 64 55 50 41 33 30 35 38 38 38 38 40 41 47 59 64 64 62 63 56 50 53 51 48 45 42 44 49 36 35 37 32 31 39 43 50 53 51
99 96 89 79 66 56 53 46 35 30 34 38 39 40 40 39 40 40 43 59 63 64 62 62 62 57 55 53 54 51 44 46 59 58 55 42 35 36 34 41 56 49 50
93 93 85 72 56 51 47 37 32 33 34 35 37 39 40 42 42 44 50 49 52 56 59 61 62 64 67 67 62 68 53 42 59 49 50 66 41 31 35 37 52 50 51
91 86 80 68 50 45 39 33 34 34 34 36 39 39 40 49 48 44 43 48 53 56 55 61 64 66 71 77 75 72 63 47 50 61 58 57 46 33 37 33 39 43 47
88 84 74 52 43 41 34 33 35 37 40 42 43 44 49 50 46 46 48 57 53 55 58 60 63 68 71 77 80 76 63 54 48 62 62 66 51 40 52 46 48 50 50
82 79 57 42 40 37 33 34 38 40 43 45 50 56 62 62 63 54 57 59 54 51 55 59 65 67 70 68 68 68 59 55 56 57 72 71 61 42 45 54 45 46 45
75 70 48 38 38 36 34 37 39 41 46 48 56 62 65 67 68 67 63 65 57 56 59 60 63 67 65 59 53 51 63 68 56 49 58 75 60 54 59 58 53 54 53
68 60 45 37 38 38 38 39 39 43 48 51 55 56 59 60 59 57 58 59 56 59 60 60 57 48 46 44 40 41 55 69 66 39 52 62 56 47 52 51 49 48 49
62 54 43 41 39 44 41 39 40 44 48 51 50 51 50 49 47 45 44 46 46 47 47 47 45 45 42 44 44 39 49 61 74 56 37 50 49 54 43 42 39 41 39
58 52 46 45 42 46 44 39 41 45 48 48 46 46 47 46 45 43 46 47 50 48 47 43 44 40 39 40 39 39 42 56 74 75 56 48 51 54 38 43 41 37 34
54 51 45 45 47 48 48 42 42 45 45 44 46 48 52 58 58 57 52 50 50 51 50 49 46 43 38 32 26 31 37 57 71 76 80 67 54 57 47 44 43 41 36
48 49 47 44 46 49 50 45 46 45 47 52 55 56 60 58 57 52 51 49 48 48 45 47 46 45 45 50 42 43 41 41 49 61 67 72 75 67 53 56 53 49 41
46 45 46 45 45 46 48 45 47 49 51 51 50 57 62 60 57 56 53 51 45 45 56 52 58 51 49 47 42 43 42 40 42 45 47 58 71 82 78 54 64 70 49
44 42 43 45 42 45 46 45 50 50 53 57 55 51 54 56 54 50 49 49 50 56 53 50 56 55 51 47 46 42 43 42 43 43 39 41 59 74 79 73 54 65 53
44 42 43 42 38 40 41 47 49 52 54 57 50 46 50 52 54 52 50 56 58 55 53 57 54 48 39 41 47 40 41 40 40 43 42 32 45 63 69 77 70 59 57
45 43 43 39 37 37 41 45 47 47 52 50 50 45 44 50 49 54 59 57 55 55 65 60 53 48 37 43 41 36 40 43 36 37 40 36 41 50 57 71 72 65 64
46 44 42 38 37 36 38 41 44 44 47 47 44 41 45 46 49 56 53 51 52 66 57 59 54 56 39 37 34 37 43 37 38 37 43 50 43 40 48 57 63 66 64
46 45 42 38 37 36 36 37 38 38 38 40 42 44 46 47 48 47 60 56 52 53 52 53 51 49 43 41 37 36 41 40 35 35 39 45 45 53 43 48 59 63 58
44 47 40 39 37 36 36 37 36 36 36 35 35 38 42 44 44 47 59 59 49 44 45 47 52 45 45 43 37 37 38 37 36 41 38 37 39 48 52 42 45 52 56
42 42 40 38 37 36 35 35 34 32 31 34 34 36 39 43 48 56 61 61 52 47 54 60 57 49 49 41 43 40 41 39 36 39 41 43 38 38 47 48 45 47 44
37 37 35 35 34 34 33 31 31 28 28 29 30 35 39 44 48 49 54 59 50 45 55 55 54 50 52 45 51 46 42 39 37 38 42 38 33 35 36 36 43 48 40
34 33 33 32 30 27 29 28 27 28 30 30 31 35 38 41 41 44 56 56 48 49 54 54 56 59 53 45 51 52 52 46 39 38 36 35 32 32 30 29 32 30 38
31 28 30 29 27 24 28 28 28 31 35 34 36 33 35 35 36 38 44 49 49 47 56 51 52 53 56 44 46 58 57 56 54 48 42 39 35 35 32 31 30 25 26
26 27 28 29 28 26 24 27 26 27 31 36 36 34 34 31 33 35 35 38 41 48 52 52 48 50 47 50 46 44 45 51 57 58 54 54 51 47 42 40 36 34 32
25 28 25 27 27 27 23 24 25 27 33 35 36 34 32 33 32 36 34 41 36 45 46 47 46 42 45 48 47 50 48 48 46 52 57 55 49 48 48 48 50 49 44
24 26 24 23 21 22 20 20 21 22 26 32 32 33 34 33 35 35 34 36 37 42 45 47 46 43 42 42 46 48 49 49 53 54 51 51 54 55 49 50 48 49 51

GFSSE_prec_cthk_027.txt.gz
RH
85 80 76 71 65 58 51 43 33 27 30 33 34 36 38 40 44 49 57 63 66 61 59 55 52 55 53 49 49 45 44 49 42 37 34 39 35 37 44 49 59 54 54
82 81 71 65 58 51 44 33 26 30 34 35 36 38 39 41 41 46 61 63 63 61 62 58 56 57 55 54 53 49 44 58 59 55 44 36 35 32 40 51 63 51 50
84 78 67 59 51 44 36 28 29 33 34 36 38 41 42 45 45 51 54 57 58 59 62 65 64 66 66 67 71 61 43 54 48 50 68 53 35 34 37 56 55 50 56
84 76 68 54 46 39 31 28 30 32 33 36 38 43 45 47 46 47 52 53 55 57 60 63 66 70 75 78 70 64 52 50 57 53 80 58 41 33 34 46 49 51 49
77 76 62 50 42 32 30 29 32 34 37 37 40 50 49 49 48 50 53 53 58 58 59 62 65 67 70 70 73 62 55 55 58 61 79 46 49 48 39 46 46 44 53
82 71 46 42 36 30 31 36 37 39 42 45 49 60 53 55 49 51 56 52 50 55 59 63 64 65 63 60 62 57 48 56 64 73 70 57 46 49 52 55 50 45 40
74 61 43 41 34 31 36 38 39 42 45 54 60 62 67 66 61 62 61 52 54 56 57 59 61 55 47 43 45 56 66 62 64 67 76 67 49 50 47 50 51 50 58
69 51 43 39 33 32 37 39 40 45 49 55 58 61 62 62 60 58 56 54 56 55 54 51 44 45 42 41 36 44 62 69 56 58 64 68 47 52 51 53 47 47 49
65 52 43 40 36 36 37 38 41 47 47 48 48 48 48 47 46 46 45 45 45 45 45 44 40 41 41 38 39 45 51 78 62 36 58 49 52 50 45 43 43 40 43
59 50 45 42 42 43 39 37 42 46 44 44 45 45 44 45 43 43 45 46 45 45 43 42 41 34 31 25 25 36 55 63 77 66 53 57 55 48 42 40 38 31 35
58 50 47 45 47 47 43 40 42 43 41 41 43 48 54 70 59 65 47 46 45 43 42 41 38 39 38 40 31 31 53 74 81 72 71 51 52 59 44 43 44 39 34
57 52 51 48 50 50 50 42 46 45 47 49 56 46 91 61 58 56 47 45 42 42 44 47 44 60 64 64 45 43 42 49 65 63 68 74 68 57 57 56 47 45 43
53 53 49 51 50 51 53 44 47 50 58 60 54 58 58 61 55 68 52 52 46 62 48 69 58 51 39 42 35 47 42 45 47 47 53 58 77 73 65 50 62 64 58
52 56 49 51 49 49 52 49 49 55 60 63 57 50 53 62 52 55 59 57 63 57 67 60 60 53 57 35 43 39 43 50 50 45 40 44 61 75 75 68 51 62 52
49 51 51 47 46 48 50 50 55 57 58 63 60 47 52 64 52 55 55 65 58 56 85 58 51 40 32 63 44 38 43 37 41 47 40 33 45 61 66 74 69 59 54
49 47 50 47 43 44 46 50 52 56 61 57 55 51 41 56 51 61 64 64 57 64 66 57 53 70 44 46 36 38 44 42 33 42 45 35 31 43 54 64 68 58 60
48 48 49 45 44 44 46 48 49 53 54 55 52 45 42 43 45 63 57 52 59 61 53 54 53 70 51 43 33 38 46 42 41 38 47 50 42 36 43 51 58 60 58
50 46 45 44 43 41 45 46 48 49 50 51 50 44 41 45 48 45 65 57 66 50 53 53 53 48 52 50 42 45 41 41 36 38 41 43 52 52 41 40 51 55 53
48 46 46 45 44 39 41 41 41 41 41 46 47 44 41 43 45 46 60 64 50 68 54 54 58 56 55 50 50 44 43 40 44 43 35 43 46 50 51 41 39 46 52
45 46 47 45 44 39 40 38 39 40 40 38 38 41 38 37 42 46 61 62 49 68 53 58 57 52 50 47 50 50 46 41 42 43 43 43 36 40 38 49 40 46 42
44 43 44 42 40 40 39 38 37 35 36 37 36 35 37 37 40 47 62 66 50 52 52 53 54 52 57 50 51 50 41 38 43 42 41 38 31 43 39 37 40 41 45
39 40 39 38 38 37 38 37 36 36 36 32 32 33 36 39 42 53 58 54 55 52 54 50 51 59 52 47 57 55 53 51 45 44 40 33 33 32 31 36 40 41 48
36 37 34 33 35 34 36 36 34 33 33 33 33 34 35 38 42 41 52 51 50 45 61 57 48 52 60 41 47 56 56 59 55 55 45 49 40 38 35 33 34 29 34
34 34 33 31 28 29 29 32 31 30 32 34 35 36 36 33 37 37 36 43 43 44 57 56 46 51 50 49 39 47 50 53 56 56 54 52 44 47 48 56 47 42 36
30 33 31 30 27 27 25 28 29 28 29 33 38 37 32 32 30 35 36 45 39 38 49 51 50 40 45 53 48 46 44 45 52 58 56 56 52 51 50 43 55 53 46
27 31 32 31 26 26 25 22 25 24 27 32 34 39 34 33 32 30 35 34 35 37 44 46 44 42 43 47 49 50 52 52 53 53 56 57 58 57 53 53 51 49 53

GFSSE_prec_cthk_030.txt.gz
RH
79 70 65 60 59 50 45 42 33 30 29 30 34 36 40 43 47 52 57 58 54 55 52 52 53 52 47 46 45 43 48 47 39 37 35 40 36 42 48 52 60 49 54
68 62 60 56 52 45 42 33 28 30 30 33 36 40 40 41 47 56 58 58 60 56 53 55 57 54 53 59 58 38 53 54 52 51 37 36 34 37 49 57 66 46 52
65 62 57 51 46 42 34 28 30 30 31 35 38 41 42 43 47 54 53 53 55 59 61 60 63 67 65 68 63 48 49 49 54 63 66 43 34 34 51 63 60 50 60
63 61 54 47 42 35 32 31 31 32 34 37 42 44 45 42 44 47 51 52 55 57 60 62 66 70 74 71 62 52 56 56 53 73 67 43 34 32 53 60 55 59 52
63 60 49 43 37 31 32 30 30 31 33 38 42 44 44 43 44 47 47 51 51 53 57 59 61 60 60 65 56 51 58 66 62 74 49 43 42 31 36 40 43 48 53
61 56 43 38 33 32 31 30 31 35 35 42 50 46 47 43 46 48 44 45 50 54 57 57 55 54 49 48 49 49 49 68 71 70 54 47 45 44 50 53 52 44 38
61 49 42 33 32 34 35 35 37 42 45 53 53 58 53 52 52 51 46 47 48 49 50 49 42 38 35 32 48 62 60 58 68 74 61 46 43 44 49 52 45 48 51
57 46 38 33 34 37 38 38 41 46 55 57 60 64 61 58 54 50 48 47 46 46 41 38 37 35 32 34 39 55 66 61 58 65 71 50 51 49 48 47 47 48 47
52 42 36 32 35 37 39 39 45 49 52 54 53 51 51 49 47 44 41 39 39 38 37 36 33 29 22 25 38 49 66 63 45 54 58 48 46 46 43 44 44 43 45
50 43 39 34 36 37 38 40 45 44 46 46 45 44 44 43 41 43 43 38 36 36 37 34 32 32 27 27 37 53 63 73 66 51 54 57 52 42 40 36 33 30 34
52 41 39 37 40 41 37 40 44 42 40 40 43 50 76 63 53 46 44 40 38 38 39 38 48 62 62 40 36 49 63 72 70 71 57 43 53 50 47 41 39 35 38
55 42 41 42 40 40 41 40 41 39 38 42 49 57 64 63 50 45 43 39 49 59 47 55 49 44 54 37 45 39 45 47 57 59 64 70 58 53 51 47 45 41 40
51 45 42 42 43 41 45 39 41 41 43 49 55 71 97 65 73 62 50 49 52 56 62 80 49 45 55 39 45 41 53 53 48 49 53 61 70 60 52 50 54 59 54
46 48 45 41 45 47 48 42 43 48 57 50 52 48 76 56 74 48 58 59 68 54 70 55 51 39 40 35 42 36 49 49 50 48 44 51 60 72 72 59 54 59 48
45 54 46 43 40 48 53 41 46 59 54 61 55 46 75 61 55 52 58 68 54 61 69 65 57 41 40 49 36 34 38 42 44 41 44 33 44 60 66 68 63 61 53
48 50 44 39 38 41 46 46 54 52 58 64 56 44 50 65 53 56 54 67 57 58 61 57 51 57 57 39 30 42 42 33 39 35 43 43 31 41 54 64 66 57 62
46 48 44 38 37 38 42 44 50 51 54 46 56 44 40 42 47 56 49 53 70 58 52 51 41 57 47 41 36 43 39 35 30 45 46 50 43 41 42 52 60 58 58
46 41 42 40 36 35 38 43 44 48 47 51 46 39 35 37 44 43 57 55 60 60 49 51 48 69 51 62 46 45 43 38 31 40 42 42 47 51 43 41 49 56 56
46 44 39 37 37 37 41 41 41 42 45 46 47 42 38 36 36 40 53 54 51 71 56 50 52 58 57 51 54 39 43 40 45 41 35 40 40 45 46 44 39 47 54
46 41 39 36 35 36 37 39 37 37 36 38 42 41 37 35 32 36 49 60 52 56 48 50 52 49 47 49 50 44 43 39 43 43 43 45 35 42 44 38 45 49 45
44 39 40 36 35 33 35 33 36 34 37 35 36 37 32 30 31 44 54 70 54 49 48 46 47 55 47 43 43 42 43 36 37 45 41 36 38 45 42 31 34 43 39
40 37 37 35 34 34 34 32 32 34 34 34 33 33 30 28 36 46 48 51 53 55 52 45 47 54 42 45 53 52 51 52 51 50 39 35 35 36 34 35 39 32 34
36 35 33 33 33 34 32 33 34 34 34 31 28 28 28 30 31 44 45 45 54 51 53 49 41 47 46 43 48 52 54 53 53 54 51 48 43 46 42 44 39 35 36
33 33 30 31 30 30 32 32 31 28 26 28 28 30 29 29 28 33 32 40 42 44 45 51 41 46 47 41 38 50 54 54 52 54 53 52 50 46 47 50 50 45 40
31 33 28 28 30 29 29 31 29 28 26 29 32 33 31 27 27 26 32 32 35 35 45 48 43 41 41 48 43 44 48 51 55 58 57 55 53 53 54 52 54 51 48
35 32 33 28 28 27 25 26 29 25 24 26 27 32 32 29 29 28 30 32 31 34 40 46 43 37 41 45 45 45 43 46 55 57 61 58 54 55 54 52 51 49 53

GFSSE_prec_cthk_033.txt.gz
RH
71 64 60 56 52 47 43 37 35 33 33 32 32 36 39 43 47 53 56 53 52 48 49 48 46 42 41 42 38 44 47 43 41 36 34 37 35 44 50 52 52 51 55
63 56 55 51 45 44 38 32 32 32 32 33 33 35 38 46 53 57 55 53 50 47 49 50 47 51 58 54 42 48 46 45 43 46 33 35 35 45 52 57 52 50 51
56 52 51 47 41 43 32 31 31 33 34 35 37 38 40 46 52 50 51 53 55 55 55 59 62 64 65 60 52 55 50 51 58 64 41 31 36 44 56 63 54 53 60
54 51 47 42 40 39 33 31 31 33 35 37 39 37 38 42 50 51 51 52 54 54 57 59 63 63 63 55 52 61 63 54 67 65 39 33 32 47 60 55 57 55 51
51 46 43 39 37 35 34 32 33 34 36 40 40 40 41 44 46 48 49 48 50 53 55 55 54 52 54 47 44 58 69 66 70 45 39 39 31 49 53 57 54 53 49
48 43 38 36 34 34 31 32 33 34 39 43 43 40 41 45 45 45 45 49 52 53 50 45 41 35 39 46 52 50 64 76 72 49 49 43 39 41 45 44 47 41 41
46 41 36 33 33 33 28 34 36 38 45 47 46 45 44 48 48 47 47 47 46 43 42 38 35 34 35 47 61 60 62 74 80 55 46 44 45 45 47 45 42 43 51
45 39 34 32 32 32 33 39 42 49 50 54 57 54 54 52 47 47 45 46 47 42 39 35 30 29 38 45 56 67 61 56 66 66 53 49 47 45 46 50 51 45 48
42 37 32 31 35 36 37 43 48 54 54 54 54 51 47 47 44 42 42 43 40 37 35 32 24 21 28 46 52 61 59 42 47 57 48 46 44 45 42 43 42 43 44
39 34 30 34 36 37 39 45 46 48 48 45 43 40 38 39 40 40 38 35 34 34 33 35 47 39 33 39 53 61 70 66 53 49 53 54 49 43 39 35 32 36 37
37 31 29 35 36 37 41 42 40 43 42 39 44 52 51 49 43 42 37 37 37 40 39 43 54 53 44 40 46 59 65 63 61 58 55 50 56 48 45 41 37 44 41
35 31 28 33 35 35 39 40 40 39 39 42 62 66 61 43 43 39 37 66 62 50 67 47 39 45 38 41 40 45 55 53 58 64 68 66 59 51 50 47 47 46 50
37 33 31 31 34 35 38 38 38 40 44 59 62 61 50 62 50 47 44 53 49 61 60 43 34 41 37 42 37 45 47 51 53 54 63 68 71 60 48 51 56 51 46
41 35 33 34 34 36 35 35 40 43 44 52 65 66 53 53 39 65 58 63 58 68 60 51 49 35 47 43 41 36 42 48 51 46 52 57 65 70 70 53 58 50 43
40 36 34 36 36 39 38 41 42 45 48 50 46 63 58 48 44 57 60 66 62 58 62 52 58 59 47 42 37 38 41 44 45 45 42 43 54 62 67 60 61 56 51
40 39 37 39 37 37 40 39 45 53 52 52 47 45 47 66 51 59 63 65 59 49 47 44 53 48 44 34 30 41 38 40 42 44 44 37 37 46 55 60 58 50 54
38 42 38 39 38 35 45 40 47 52 56 54 58 46 44 46 50 60 59 63 65 53 46 45 55 55 54 45 41 41 37 37 38 39 46 46 44 39 41 52 56 51 49
41 40 39 38 38 36 36 42 46 47 48 46 44 45 42 41 46 60 62 58 52 70 44 48 61 61 58 51 44 46 43 41 35 34 36 43 47 45 41 39 49 55 49
42 37 37 37 37 37 37 38 42 43 45 50 48 44 43 38 40 48 59 62 56 57 48 54 57 58 52 48 48 41 42 43 38 37 38 38 36 42 41 42 38 42 46
44 39 33 34 37 36 34 35 37 38 39 44 49 45 41 37 34 46 56 73 58 52 49 53 55 53 50 43 42 41 42 39 45 43 43 38 41 46 37 27 37 40 42
43 38 34 30 31 35 36 32 29 28 30 34 40 37 33 31 35 46 49 58 63 48 49 49 47 45 42 45 47 45 36 40 43 41 38 33 30 32 33 32 36 36 37
38 35 34 30 25 27 29 28 25 26 29 30 33 32 30 31 40 42 46 53 57 54 49 45 47 42 40 47 46 53 50 47 51 50 50 42 42 41 38 34 32 29 32
34 33 31 31 26 25 26 28 28 29 28 30 30 27 27 30 35 38 38 45 48 54 47 46 42 42 39 44 50 51 50 48 50 52 51 48 46 44 43 44 46 42 38
29 30 30 30 28 26 26 27 26 23 23 22 23 24 26 29 33 28 31 39 40 47 43 46 37 42 39 44 47 49 48 52 50 52 51 53 53 50 49 47 45 44 45
30 30 30 29 28 27 25 25 25 22 23 23 25 27 28 28 27 25 29 32 35 35 39 44 42 38 42 40 40 43 50 55 54 57 53 54 52 51 50 48 49 48 45
33 30 30 29 27 26 24 23 23 22 22 25 29 29 29 27 27 27 25 29 32 30 34 42 41 35 39 43 40 43 50 52 54 54 54 52 51 49 50 48 47 46 44

GFSSE_prec_cthk_036.txt.gz
RH
73 70 66 56 49 46 42 39 36 32 33 34 39 41 43 43 50 52 53 52 50 50 49 47 41 43 44 37 41 47 47 45 41 35 41 41 43 45 50 52 50 54 55
62 64 61 51 46 39 36 34 31 32 33 33 37 40 47 52 58 55 53 50 50 51 51 47 52 59 54 50 47 43 42 43 46 40 37 41 43 49 56 51 51 53 53
59 55 51 44 40 35 31 30 29 30 31 34 37 39 47 52 53 53 55 55 55 57 62 64 64 64 56 56 57 58 50 55 64 44 34 41 44 57 70 58 53 56 58
54 49 45 41 39 32 28 29 31 32 35 37 35 39 46 50 52 50 54 56 58 59 60 60 61 58 51 53 59 65 62 65 60 42 32 37 49 65 59 58 59 54 51
51 46 41 41 35 29 28 30 31 35 38 38 37 39 43 47 49 49 49 54 54 56 55 50 48 45 39 46 56 66 70 60 42 37 35 32 51 58 57 58 52 51 50
47 42 39 38 31 27 30 32 33 38 41 40 39 41 42 43 45 47 49 50 51 47 44 38 36 39 52 55 55 68 79 62 42 41 36 34 42 48 50 49 48 45 50
43 37 35 32 31 27 32 33 35 43 45 44 41 42 42 44 43 43 44 44 42 40 35 31 31 41 52 67 62 71 80 74 53 45 45 44 45 50 47 44 40 51 51
40 37 33 30 31 28 33 35 41 46 46 48 45 47 46 44 42 41 44 44 37 31 29 25 27 39 47 61 72 63 73 69 62 52 48 45 46 47 49 52 47 49 49
39 35 30 30 29 31 37 39 46 49 57 54 51 48 44 43 41 41 38 35 32 29 23 23 22 34 45 50 61 50 53 54 58 52 50 46 45 42 41 42 41 43 44
39 33 29 30 32 36 40 45 50 52 51 46 41 38 34 32 35 34 32 32 33 36 41 57 42 36 47 52 67 67 69 57 55 55 52 49 41 39 38 34 39 40 40
38 31 31 34 35 39 41 45 46 43 41 39 39 37 37 33 31 32 35 37 40 47 43 43 43 39 38 50 61 63 65 72 61 57 54 51 47 44 40 36 41 41 39
35 31 33 35 36 40 39 38 39 39 43 49 58 51 41 39 32 35 57 47 50 63 43 42 44 44 38 42 52 59 58 66 64 61 64 64 49 50 46 45 48 54 48
32 28 33 35 36 38 37 35 34 40 57 61 60 48 51 47 38 38 51 55 64 60 44 38 38 41 42 38 37 47 49 58 59 63 66 66 58 47 49 51 47 42 40
32 27 31 32 34 35 35 33 34 44 61 61 57 51 48 47 59 53 61 55 61 68 58 53 45 45 40 40 39 35 41 51 43 53 56 62 66 66 60 50 49 43 39
32 28 29 31 33 33 34 34 35 41 50 62 58 54 54 51 53 57 61 55 51 52 52 57 56 55 43 42 41 37 38 39 38 44 47 51 58 61 63 52 60 51 50
34 32 30 30 32 32 33 36 39 39 43 46 60 51 47 52 52 54 64 62 54 50 51 56 49 45 39 38 35 39 32 34 40 39 41 43 44 49 52 56 53 50 50
37 32 30 33 31 32 35 37 42 42 44 43 49 46 54 53 53 55 55 58 67 48 46 55 56 53 45 41 42 42 36 34 38 39 36 41 41 39 48 54 52 47 44
37 35 35 37 35 31 33 37 44 44 47 42 45 40 45 45 48 53 54 54 58 54 51 61 60 54 50 47 43 44 37 32 33 34 37 41 41 41 41 42 53 49 51
38 34 35 38 38 35 37 37 39 45 43 40 39 40 42 42 41 51 56 57 54 53 50 59 61 52 48 46 44 39 43 39 36 34 37 34 39 40 39 41 42 52 53
42 34 37 38 42 40 40 38 40 42 42 39 42 41 41 41 38 43 59 64 54 52 53 52 54 48 44 41 42 41 43 44 35 35 35 33 32 35 30 33 39 43 44
42 36 35 36 37 40 40 39 37 38 37 39 39 40 38 39 41 40 49 59 57 48 50 47 48 45 41 45 45 38 41 40 44 45 41 36 31 30 29 31 28 32 37
41 38 36 36 39 40 40 33 31 30 30 33 33 34 34 41 41 42 48 52 55 48 54 44 45 38 44 44 46 46 45 49 49 49 46 43 42 40 41 34 31 28 31
38 37 36 33 36 37 36 31 27 27 28 28 30 30 31 37 43 40 41 44 53 50 47 44 41 37 40 44 47 46 47 47 47 47 48 48 46 45 45 44 41 38 35
34 36 34 33 33 33 31 28 27 23 22 22 23 25 28 32 39 36 34 37 43 49 46 43 39 38 40 44 50 53 53 52 50 49 48 47 48 49 46 45 43 42 41
34 38 34 32 32 31 30 27 24 24 20 20 22 24 28 30 31 30 31 30 35 41 45 43 38 41 40 43 50 55 56 56 53 51 48 48 48 50 49 47 45 43 41
32 35 34 32 31 30 29 28 24 22 21 20 21 25 30 29 28 28 28 29 31 34 39 41 42 38 41 42 45 52 56 55 53 53 50 48 47 48 46 45 43 42 41

GFSSE_prec_cthk_042.txt.gz
RH
87 82 72 63 54 52 40 32 30 30 33 37 37 40 43 44 46 48 48 47 44 43 42 41 43 43 36 41 44 44 41 40 43 48 53 50 46 46 48 48 52 52 53
80 71 61 54 47 41 34 32 32 34 40 40 41 48 50 51 54 53 51 50 48 45 49 55 58 54 51 49 44 42 43 45 41 40 44 49 52 52 48 49 50 53 54
69 61 57 48 42 36 32 33 30 33 37 41 48 54 56 60 55 53 53 54 58 59 64 69 61 55 55 60 59 47 52 58 45 38 45 51 54 52 50 50 53 55 48
58 55 50 42 41 35 35 30 28 33 38 43 48 54 55 58 59 54 54 56 62 69 64 60 42 47 55 61 71 61 53 46 34 36 45 52 65 60 56 54 53 47 47
52 50 43 39 37 35 31 31 32 34 37 40 45 50 55 55 50 53 55 58 52 45 41 36 38 51 62 64 75 71 40 37 32 41 49 54 59 56 56 53 47 48 50
49 46 39 38 33 31 32 35 36 36 39 43 51 54 56 51 52 53 54 45 40 33 38 45 52 63 68 70 75 53 50 34 31 39 45 54 55 55 51 48 48 50 49
47 40 39 39 29 30 32 36 38 41 46 41 44 55 47 49 50 47 43 39 30 26 35 49 60 64 65 78 75 52 43 36 34 37 44 48 50 51 48 44 51 46 46
43 39 40 33 28 32 34 42 40 41 45 44 44 45 45 45 45 44 37 29 27 27 31 41 52 65 67 82 75 57 44 42 39 40 45 47 45 45 48 49 48 48 45
42 40 38 28 35 35 44 43 44 42 45 46 48 48 49 46 41 35 29 25 35 35 30 41 46 60 61 68 72 61 55 50 43 41 41 42 45 47 44 42 46 45 48
40 40 31 27 32 34 44 46 49 49 50 50 53 48 37 38 44 34 31 36 36 35 38 45 51 62 61 64 58 62 56 51 49 45 41 44 49 41 41 47 48 47 47
36 34 31 27 33 36 44 49 53 51 49 46 42 32 35 35 38 39 50 54 39 41 44 43 42 52 63 67 68 62 59 56 53 44 44 49 53 40 48 49 45 42 46
34 30 30 28 34 41 47 52 51 44 37 33 32 33 37 47 50 46 56 59 46 42 46 40 39 43 48 57 63 62 60 52 55 56 49 54 46 44 43 47 46 46 45
31 28 28 33 36 43 49 48 41 39 38 40 39 38 37 43 59 63 66 66 56 53 48 49 43 35 39 46 51 55 58 60 58 64 50 50 51 50 50 52 47 41 37
30 27 29 35 36 41 45 43 44 46 50 47 43 39 43 54 64 60 60 66 61 54 62 52 47 38 37 32 40 44 51 58 55 58 61 57 62 48 51 44 40 41 40
28 27 30 35 35 38 46 49 56 54 52 48 50 53 58 64 66 66 59 58 55 58 65 56 48 39 38 37 36 39 43 48 55 53 56 62 69 64 50 52 47 44 39
28 27 31 34 33 36 44 48 57 59 57 48 49 55 58 64 70 69 68 59 51 57 61 59 51 43 40 35 34 35 39 40 46 54 55 53 60 63 58 52 47 46 41
26 27 30 32 32 33 37 42 56 65 61 53 51 53 61 61 62 63 63 68 55 59 60 56 51 43 41 40 32 33 39 40 39 49 51 55 52 57 65 60 48 47 42
26 27 30 31 30 31 33 37 43 53 58 56 55 54 60 59 61 61 61 59 57 59 61 58 53 42 42 48 35 34 37 38 39 41 40 41 44 49 57 59 57 53 47
27 23 29 29 29 29 31 37 40 44 49 50 52 52 53 58 56 60 64 61 62 59 61 58 54 44 45 44 38 37 35 36 38 40 39 40 40 38 39 46 49 52 51
30 24 24 27 28 30 31 36 39 41 44 46 47 43 47 53 57 58 67 67 62 57 60 54 46 44 41 38 40 44 36 33 37 36 34 31 30 28 31 34 41 42 44
34 28 25 24 26 29 30 33 37 39 41 45 46 42 46 48 51 52 56 58 64 50 52 51 46 41 41 38 39 39 36 36 36 37 36 33 34 29 29 27 28 35 36
38 30 27 26 24 28 30 31 35 37 39 45 43 41 44 44 48 50 53 53 58 50 49 47 47 46 46 46 45 44 45 43 43 41 40 39 39 37 36 33 32 28 29
40 33 27 30 24 32 33 36 38 39 40 41 40 38 45 42 42 46 52 54 48 50 47 46 44 41 45 46 44 44 45 45 45 45 45 44 44 41 40 40 37 32 30
38 36 31 30 28 33 37 40 40 41 40 36 35 35 41 42 40 41 43 49 47 46 45 47 42 41 48 49 48 46 45 44 44 44 44 44 42 41 39 38 38 36 35
37 34 31 29 31 33 35 38 38 40 38 33 31 33 34 38 37 37 38 43 46 48 46 45 42 44 45 48 50 50 48 46 46 44 45 44 42 40 39 38 37 39 38
34 35 31 28 28 33 33 34 36 35 33 30 28 29 29 30 31 32 33 36 42 43 45 44 43 42 44 46 47 48 51 50 47 45 43 42 40 39 39 40 39 40 40

GFSSE_prec_cthk_048.txt.gz
RH
87 82 78 74 67 58 52 50 47 49 44 43 44 47 42 39 40 42 43 42 40 36 38 41 42 36 37 39 38 37 42 54 61 61 51 56 52 52 54 59 62 59 51
80 78 74 66 57 42 39 37 36 37 38 42 44 46 45 50 48 47 47 49 48 49 53 55 49 48 45 48 48 47 45 44 50 57 52 54 52 53 52 56 60 52 51
74 67 60 50 35 32 31 33 36 40 46 49 49 54 55 53 51 52 52 56 62 70 67 56 54 58 58 52 46 49 54 56 42 56 65 66 60 55 54 59 59 52 46
69 62 54 40 34 36 36 41 45 43 51 58 59 59 54 56 62 59 65 67 60 57 44 45 52 56 62 64 53 51 63 49 49 60 70 67 60 59 57 55 49 48 50
61 58 48 35 36 34 35 37 41 53 57 60 58 60 57 56 60 61 53 43 40 54 44 51 54 60 69 72 59 44 38 39 47 59 63 63 66 60 55 51 50 52 50
59 58 41 34 36 32 38 40 44 50 51 56 56 56 58 55 56 46 35 32 45 45 50 61 64 70 70 58 54 36 34 44 57 64 69 69 64 59 51 48 50 48 43
59 52 38 35 30 38 37 36 41 43 47 51 52 55 57 54 45 34 28 30 36 53 61 60 68 76 67 55 42 34 38 48 57 63 67 71 63 57 48 48 45 43 46
55 50 40 36 32 40 35 40 40 49 49 52 46 50 48 43 36 28 31 29 36 52 61 64 75 77 58 51 42 38 40 47 56 59 65 62 52 47 47 49 47 43 43
53 53 40 38 37 39 37 46 46 40 46 47 51 47 40 34 26 27 33 30 38 42 59 69 71 76 60 50 46 39 40 47 58 60 58 53 51 50 48 50 45 48 43
52 51 37 41 44 48 44 45 44 44 48 50 46 39 35 30 30 34 34 35 37 45 53 61 62 65 68 62 53 45 41 45 50 54 59 50 48 48 49 48 49 48 47
51 49 39 48 49 54 49 43 47 48 51 46 35 39 41 43 55 53 38 38 46 47 51 60 61 59 60 59 57 53 57 57 57 59 55 47 50 54 51 49 46 45 43
49 47 42 47 56 54 59 51 54 56 51 45 42 42 49 55 63 60 45 49 49 45 46 49 54 59 74 65 60 58 63 55 56 60 55 41 43 52 46 42 45 42 44
47 43 42 44 50 59 63 63 58 50 41 39 43 45 52 62 64 68 58 53 54 49 53 47 47 57 56 67 66 64 58 63 59 60 50 45 48 47 43 40 38 37 40
45 42 39 42 48 56 58 55 46 40 39 45 44 46 60 58 59 64 64 55 61 60 51 51 44 37 39 48 61 66 61 64 66 59 49 48 48 49 43 37 37 37 39
43 41 38 43 48 56 52 46 44 44 46 44 44 52 60 69 62 65 60 63 66 65 57 51 45 41 35 35 48 60 61 56 65 68 66 56 48 46 40 44 44 36 36
38 35 39 43 48 49 46 42 48 53 49 49 60 62 65 68 69 72 65 61 65 64 60 54 45 43 44 41 41 51 58 57 59 63 72 61 57 52 47 43 43 39 36
37 36 41 44 47 47 47 48 50 52 55 58 61 60 59 63 73 70 73 63 62 59 53 47 45 39 45 45 44 45 52 56 56 60 67 69 61 56 54 48 45 44 41
36 36 39 46 46 49 55 49 52 54 55 58 62 61 59 59 67 66 68 61 61 60 57 54 48 47 40 42 48 48 46 46 46 49 57 61 60 66 56 55 53 51 49
36 31 36 42 47 51 53 54 55 53 54 59 61 63 57 59 61 65 68 72 60 59 57 53 49 47 45 42 42 44 45 47 42 44 44 44 44 50 54 47 47 46 45
37 30 34 40 46 48 50 53 56 53 53 57 60 63 58 57 56 64 76 69 64 59 55 51 43 41 48 44 41 39 43 42 41 41 42 41 36 38 42 42 46 45 38
39 32 31 35 39 42 39 47 50 50 50 51 53 52 52 53 48 55 67 65 57 59 54 45 39 37 43 41 41 36 33 34 37 37 40 37 35 38 35 33 35 41 38
38 33 30 33 35 35 36 37 45 48 48 50 51 47 46 50 48 56 58 57 59 61 54 53 42 44 43 38 47 42 43 43 45 47 42 43 41 41 42 37 31 30 31
39 34 30 29 29 29 33 34 36 39 44 43 47 50 45 45 47 50 51 60 58 57 53 47 44 44 49 45 44 52 51 55 51 46 44 46 41 43 40 37 38 33 33
39 37 32 28 26 28 28 32 34 37 38 42 48 52 45 42 44 47 60 54 51 59 51 47 44 46 48 49 45 46 46 48 57 55 45 43 39 39 38 41 40 40 36
43 40 35 32 25 27 26 30 33 34 36 40 46 48 43 37 38 45 60 51 52 50 47 50 44 43 46 50 49 47 46 49 46 52 51 45 39 38 41 40 43 42 41
45 43 38 33 26 24 24 25 29 31 34 39 39 43 42 39 37 37 44 47 46 44 45 53 48 41 45 45 46 46 50 56 50 49 46 44 43 42 42 42 42 41 41